OK1TBF-14 Weather Reports


time (UTC)temp
C
wind
direction
speed
KPH
gust
KPH
rain 1hr
cm
rain 24hr
cm
rain mn
cm
humidity
%
barometer
mb
20260508000025 10 264 4.8 11.3 0.00 0.00 0.00 81 1015.1
20260507233003 11 258 3.2 6.4 0.00 0.00 0.00 78 1015.0
20260507230003 11 278 1.6 4.8 0.00 0.00 0.00 77 1015.2
20260507223004 11 106 1.6 3.2 0.00 0.00 0.00 75 1015.2
20260507220024 12 189 3.2 6.4 0.00 0.00 0.00 74 1015.0
20260507213003 12 250 1.6 6.4 0.00 0.00 0.00 73 1015.0
20260507210004 12 181 0.0 4.8 0.00 0.00 0.00 70 1014.7
20260507203003 12 318 3.2 6.4 0.00 0.00 0.00 71 1014.2
20260507200003 12 318 3.2 11.3 0.00 0.00 0.00 69 1013.8
20260507193024 13 317 8.0 14.5 0.00 0.00 0.00 67 1013.9
20260507190004 14 335 8.0 14.5 0.00 0.00 0.00 60 1013.2
20260507183003 15 333 6.4 16.1 0.00 0.00 0.00 57 1012.8
20260507180003 15 325 8.0 19.3 0.00 0.00 0.00 55 1012.4
20260507173003 16 331 6.4 14.5 0.00 0.00 0.00 51 1012.4
20260507170003 16 283 8.0 24.1 0.00 0.00 0.00 49 1012.0
20260507163003 16 306 11.3 22.5 0.00 0.00 0.00 53 1011.8
20260507160003 17 296 11.3 25.7 0.00 0.00 0.00 54 1011.6
20260507153024 18 306 11.3 24.1 0.00 0.00 0.00 50 1011.5
20260507150003 18 285 12.9 27.4 0.00 0.00 0.00 49 1011.2
20260507143003 18 270 12.9 25.7 0.00 0.00 0.00 52 1011.3
20260507140003 18 292 12.9 25.7 0.00 0.00 0.00 51 1011.6
20260507133003 18 273 12.9 22.5 0.00 0.00 0.00 49 1011.4
20260507130003 19 269 12.9 24.1 0.00 0.00 0.00 51 1011.4
20260507123003 18 278 9.7 30.6 0.00 0.00 0.00 53 1011.6
20260507120003 18 307 8.0 19.3 0.00 0.00 0.00 55 1011.6
20260507113004 18 217 8.0 16.1 0.00 0.00 0.00 52 1011.6
20260507110003 18 264 9.7 20.9 0.00 0.00 0.00 55 1011.4
20260507103003 17 254 9.7 17.7 0.00 0.00 0.00 56 1011.4
20260507100003 16 254 9.7 19.3 0.00 0.00 0.00 59 1011.4
20260507093003 16 257 14.5 22.5 0.00 0.00 0.00 64 1011.2
20260507090004 16 261 11.3 20.9 0.00 0.00 0.00 68 1011.0
20260507083003 15 251 12.9 24.1 0.00 0.00 0.00 68 1010.8
20260507080004 14 253 14.5 29.0 0.00 0.00 0.00 73 1011.0
20260507073003 13 252 11.3 22.5 0.00 0.00 0.00 76 1010.7
20260507070007 13 254 14.5 25.7 0.00 0.00 0.00 76 1010.4
20260507063003 13 250 12.9 24.1 0.00 0.00 0.00 80 1010.1
20260507060003 12 246 11.3 19.3 0.00 0.00 0.00 83 1009.7
20260507053004 12 222 6.4 11.3 0.00 0.00 0.00 87 1009.5
20260507050003 11 154 3.2 6.4 0.00 0.00 0.00 87 1009.1
20260507043004 11 125 3.2 4.8 0.00 0.00 0.00 89 1008.8
20260507040003 11 22 1.6 6.4 0.00 0.00 0.00 90 1008.1
20260507033003 11 261 4.8 9.7 0.00 0.00 0.00 88 1008.1
20260507030004 11 275 4.8 8.0 0.00 0.00 0.00 86 1008.1
20260507023003 11 90 9.7 12.9 0.00 0.00 0.00 82 1007.2
20260507020003 12 97 3.2 4.8 0.00 0.00 0.00 86 1007.4
20260507013003 12 162 3.2 6.4 0.00 0.00 0.00 86 1007.1
20260507010003 12 191 1.6 6.4 0.00 0.00 0.00 85 1006.9
20260507003003 12 81 6.4 12.9 0.00 0.00 0.00 85 1006.4